Regional Weather Roundup
Issued by NWS Northern Indiana

Home | Current Version | Previous Version | Text Only | Print | Product List | Glossary On
Versions: 1 2 3 4 5 6 7 8 9 10 11 12 13 14 15 16 17 18 19 20 21 22 23 24 25 26 27 28 29 30 31 32 33 34 35 36 37 38 39 40 41 42 43 44 45 46 47 48 49 50
000
ASUS43 KIWX 310110
RWRIWX

KIWX WEATHER ROUNDUP
NATIONAL WEATHER SERVICE NORTHERN INDIANA
900 PM EDT SUN AUG 30 2015

NOTE: "FAIR" INDICATES FEW OR NO CLOUDS BELOW 12,000 FEET WITH NO
SIGNIFICANT WEATHER AND/OR OBSTRUCTIONS TO VISIBILITY.

* THESE STATIONS ARE NOT UNDER NWS QUALITY CONTROL. THEY ALSO MAY NOT
  REPORT WEATHER SUCH AS PRECIPITATION OR FOG.

INZ001>027-310200-
NORTHERN INDIANA

CITY           SKY/WX    TMP DP  RH WIND       PRES   REMARKS
GARY*          PTCLDY    70  64  83 VRB5      30.04R
VALPARAISO     CLEAR     68  66  93 N3        30.04R
MICHIGAN CITY* CLEAR     64  64 100 CALM      30.04R FOG
LAPORTE*       CLEAR     67  67 100 CALM      30.04R FOG
KNOX*          CLEAR     70  68  94 E3        30.02R
SOUTH BEND     CLEAR     67  64  90 N3        30.04R
GOSHEN         LGT RAIN  70  68  93 CALM      30.03R FOG
MONTICELLO*    MOCLDY    73  73  99 CALM      30.02R
LOGANSPORT*    HAZE      72  66  83 CALM      30.04R VSB 1/2
ROCHESTER*     CLEAR     75  72  88 CALM      30.04R
WARSAW*        CLEAR     70  68  94 CALM      30.04R FOG
ANGOLA*        CLEAR     73  70  88 CALM      30.04R
FORT WAYNE     PTCLDY    74  67  78 CALM      30.04R
HUNTINGTON*    PTCLDY    74  65  75 CALM      30.03R
PERU/GRISSOM   CLEAR     74  69  84 SW5       30.02S
MARION*        CLEAR     71  60  67 CALM      30.04S

$$
INZ028>050-310200-
CENTRAL INDIANA

CITY           SKY/WX    TMP DP  RH WIND       PRES   REMARKS
LAFAYETTE      PTCLDY    75  69  81 CALM      30.02R
KOKOMO*        CLEAR     75  55  50 SW3       30.04R
MUNCIE*        CLEAR     73  64  73 CALM      30.05R
INDIANAPOLIS   MOCLDY    76  64  66 S7        30.04R

$$
MIZ043>046-050>051-056>058-064>065-071>073-077>080-310200-
SOUTHWEST LOWER MICHIGAN

CITY           SKY/WX    TMP DP  RH WIND       PRES   REMARKS
BATTLE CREEK   PTCLDY    70  66  87 W6        30.05R
BENTON HARBOR  CLEAR     65  63  93 CALM      30.04R FOG
COLDWATER*     CLEAR     68  67  96 CALM      30.04R FOG
HILLSDALE*     CLEAR     69  69 100 CALM      30.05R FOG
HOLLAND        MOCLDY    66  64  93 SW3       30.04R FOG
GRAND RAPIDS   CLEAR     68  65  90 SW6       30.04R
KALAMAZOO      PTCLDY    70  64  81 CALM      30.05R
STURGIS*       CLEAR     70  68  94 CALM      30.04R FOG
THREE RIVERS*  FAIR      69  67  93 CALM      30.04S

$$
OHZ001>008-015>018-024>025-310200-
NORTHWEST OHIO

CITY           SKY/WX    TMP DP  RH WIND       PRES   REMARKS
WAUSEON*       FAIR      72  72 100 CALM      30.03R
DEFIANCE       CLEAR     76  69  79 CALM      30.03R
FINDLAY        CLEAR     73  68  84 CALM      30.03R
TOLEDO EXPRESS CLEAR     72  68  87 CALM      30.02R
TOLEDO METCALF CLEAR     76  66  71 S7        30.03R
LIMA           PTCLDY    74  69  85 S7        30.05R

$$
AND FOR LAKE MICHIGAN COASTAL AND OPEN LAKE BUOY OBSERVATIONS

STATION/POSITION TEMP    WIND        PRES    VSBY  WAVE
                 AIR SEA DIR/SP/G                  HT/PER
                 (F)     (DEG/KT/KT) (MB)    (MI)  (FT/S)
MICHIGAN CITY     69      20/  7/  7   N/A
BURNS HARBOR      70      60/  8/  8 1016.9F
SAINT JOSEPH      67      CALM  /  2 1017.9R
SOUTH LAKE BUOY   67 68  140/  4/  6 1016.6R         0
4 MI NW BRIDGMAN  69 71   70/  4/  6   N/A           1/ 3
MICHIGAN CITY     69 71   70/  6/  8   N/A           1/ 3

$$
&&



USA.gov is the U.S. government's official web portal to all federal, state and local government web resources and services.